[[{"header":{"parameterUnit":"m.s-1","parameterCategory":1,"la1":30.2991,"la2":30.254,"lo1":-89.0895,"lo2":-89.0444,"dy":0.0017,"dx":0.0017,"nx":28,"ny":28,"refTime":"2024-07-17T21:00:00:Z","depth":0,"parameterNumber":2,"parameterNumberName":"U-component_of_WINDS"},"data":[0,0,0,0,0,0,0,0,0,0,0,0,0,0,0,0,0,0,0,0,0,0,0,0,0,0,0,0,0,0,0,0,0,0,0,0,0,0,0,0,0,0,0,0,0,0,0,0,0,0,0,0,0,0,0,0,0,0,2.7648,2.7649,0,2.7743,2.7744,2.7745,2.7756,2.7755,2.7754,2.7753,2.7844,2.7847,2.7851,0,0,0,0,0,0,0,0,0,0,0,0,0,2.747,2.7474,2.7648,2.765,2.7651,2.7743,2.7744,2.7745,2.7756,2.7755,2.7754,2.7753,2.7843,2.7847,2.7851,0,0,0,0,0,0,0,0,0,0,0,0,0,2.7554,2.7475,2.7648,2.7667,2.767,2.7743,2.7744,2.7746,2.7756,2.7755,2.7753,2.7752,2.7842,2.7847,2.7851,2.791,0,0,2.7867,2.7869,0,0,0,0,0,0,0,0,2.755,2.7561,2.7663,2.7666,2.7669,2.7736,2.7715,2.7801,2.7756,2.7723,2.7753,2.7751,2.7809,2.7817,2.7837,2.7914,2.7918,2.7867,2.787,2.7872,2.7873,0,0,0,0,0,0,0,2.7544,2.7557,2.7686,2.7665,2.7668,2.7669,2.7679,2.7731,2.7772,2.7726,2.7727,2.7738,2.781,2.7832,2.7839,2.7919,2.7867,2.7871,2.7874,2.7876,2.8047,2.8048,0,0,0,0,0,0,2.7535,2.7552,2.7683,2.7688,2.7605,2.7673,2.7685,2.7716,2.7772,2.7779,2.7739,2.7739,2.7825,2.7834,2.7843,2.7913,2.7872,2.7877,2.7879,2.8045,2.8047,2.8049,0,0,0,0,0,0,2.7531,2.7547,2.7679,2.7621,2.7637,2.7678,2.7713,2.7719,2.7741,2.7782,2.7789,2.7755,2.7824,2.7836,2.7893,2.7917,2.7879,2.7883,2.8043,2.8046,2.8048,2.8056,0,0,0,0,0,0,2.7526,2.7546,2.757,2.7621,2.7641,2.7729,2.7714,2.7721,2.775,2.775,2.7799,2.7805,2.7824,2.7886,2.7898,2.7923,2.7887,2.8041,2.8044,2.8047,2.8054,2.8058,2.8062,0,0,0,0,0,2.752,2.7567,2.7571,2.7586,2.7672,2.7731,2.7742,2.7764,2.7752,2.7775,2.7802,2.7804,2.7912,2.7891,2.7905,2.7932,2.804,2.8044,2.8047,2.8052,2.8057,2.8062,0,0,0,0,0,0,2.7515,2.7574,2.7579,2.7645,2.7683,2.7733,2.7763,2.7769,2.781,2.7808,2.7831,2.7842,2.7898,2.7921,2.7896,2.799,2.7975,2.7981,2.7973,2.7979,2.7983,2.7976,2.7891,0,0,0,0,0,2.7522,2.7567,2.7616,2.7669,2.7688,2.7722,2.7749,2.7762,2.7802,2.7818,2.7848,2.7885,2.7927,2.7955,2.7996,2.8057,2.8067,2.8082,2.8086,2.809,2.8095,2.8127,2.8134,2.806,2.806,2.806,0,0,2.7536,2.7574,2.7601,2.7669,2.77,2.7744,2.7736,2.7783,2.7815,2.7824,2.788,2.7904,2.7947,2.8006,2.8033,2.8026,2.8117,2.8094,2.8097,2.81,2.8131,2.8138,2.8144,2.8063,2.8062,2.8062,0,0,2.7584,2.7619,2.7666,2.7698,2.7746,2.7768,2.778,2.7829,2.7845,2.7903,2.791,2.7947,2.802,2.805,2.8074,2.8133,2.8135,2.8146,2.8167,2.8198,2.8204,2.8209,2.8228,2.8235,2.8151,2.8151,2.8151,0,2.7595,2.7664,2.7689,2.7736,2.7765,2.7777,2.7824,2.7853,2.7911,2.793,2.7922,2.8013,2.8042,2.8108,2.8122,2.8142,2.8154,2.814,2.8202,2.8207,2.8212,2.8231,2.8238,2.8152,2.8151,2.8151,2.8151,0,2.7674,2.7721,2.7754,2.7811,2.7844,2.789,2.792,2.795,2.796,2.7983,2.8039,2.8076,2.8124,2.814,2.8151,2.8207,2.8201,2.8197,2.8181,2.822,2.8237,2.8245,2.8153,2.8152,2.8152,2.8152,0,0,2.7721,2.7793,2.7804,2.783,2.7883,2.7919,2.7965,2.8015,2.8038,2.8078,2.8115,2.8177,2.8173,2.8201,2.8215,2.8242,2.8284,2.8235,2.8236,2.8241,2.8346,2.8347,2.8355,2.8287,2.8288,2.8289,2.8341,0,2.7774,2.7859,2.7883,2.7954,2.7996,2.8009,2.8049,2.8084,2.8107,2.8144,2.8168,2.821,2.8204,2.822,2.8248,2.8273,2.8305,2.827,2.8319,2.8321,2.8307,2.8365,2.8367,2.8414,2.8349,2.835,2.8351,0,2.7847,2.789,2.7966,2.8013,2.8032,2.8068,2.8114,2.8151,2.8191,2.8205,2.8236,2.8247,2.8293,2.8276,2.8338,2.8314,2.8335,2.8351,2.8353,2.8357,2.8337,2.8369,2.843,2.8437,2.8362,2.8361,2.836,0,2.7872,2.7948,2.8003,2.8025,2.8082,2.8107,2.8131,2.817,2.8198,2.8237,2.8255,2.8299,2.8322,2.8355,2.8376,2.8362,2.8436,2.8422,2.8447,2.8446,2.8461,2.8459,2.8525,2.8478,2.8477,2.8477,2.8477,0,2.7928,2.7973,2.8015,2.8049,2.8099,2.8125,2.8173,2.8198,2.8232,2.8269,2.8282,2.8315,2.8343,2.838,2.8397,2.8445,2.8455,2.8466,2.847,2.8464,2.8463,2.8478,2.8474,2.8479,2.8479,2.8478,2.8478,0,2.7963,2.7994,2.8054,2.8104,2.8117,2.8152,2.8193,2.8225,2.8247,2.8294,2.8306,2.834,2.8384,2.841,2.8464,2.8476,2.8528,2.8531,2.8515,2.8517,2.854,2.8537,2.8616,2.8627,2.8574,2.8574,2.8575,0,2.7996,2.8032,2.8086,2.8112,2.8138,2.818,2.8209,2.8235,2.8263,2.8312,2.8337,2.8382,2.8419,2.8488,2.8517,2.8558,2.8561,2.8586,2.8567,2.856,2.8559,2.8556,2.8559,2.8589,2.8589,2.8589,2.859,0,2.8051,2.8064,2.8106,2.8153,2.8187,2.8225,2.8262,2.8282,2.8314,2.8345,2.8391,2.842,2.8477,2.852,2.8564,2.8587,2.8593,2.8596,2.8604,2.8597,2.8586,2.8591,2.8522,2.8593,2.8593,2.8593,2.8593,2.8592,2.8085,2.8117,2.816,2.8205,2.8236,2.8271,2.8303,2.833,2.837,2.8419,2.8431,2.8479,2.8516,2.8576,2.86,2.8636,2.8631,2.8643,2.8646,2.8648,2.8648,2.8582,2.8644,2.8644,2.8644,2.8644,2.8644,0,2.8139,2.8167,2.821,2.8262,2.8297,2.8303,2.8344,2.8372,2.8415,2.845,2.8487,2.8539,2.8581,2.8613,2.8656,2.8678,2.8682,2.8688,2.8686,2.8691,2.865,2.8639,2.8685,2.8684,2.8684,2.8684,2.8684,2.8684,2.8171,2.8225,2.8243,2.8311,2.8338,2.8387,2.8409,2.844,2.8469,2.8527,2.8563,2.8584,2.8618,2.8663,2.8701,2.8709,2.8723,2.8729,2.8737,2.8698,2.8694,2.8689,2.8678,2.8732,2.8732,2.8774,2.8775,2.8775]},{"header":{"parameterUnit":"m.s-1","parameterCategory":1,"la1":30.2991,"la2":30.254,"lo1":-89.0895,"lo2":-89.0444,"dy":0.0017,"dx":0.0017,"nx":28,"ny":28,"refTime":"2024-07-17T21:00:00:Z","depth":0,"parameterNumber":3,"parameterNumberName":"V-component_of_WINDS"},"data":[0,0,0,0,0,0,0,0,0,0,0,0,0,0,0,0,0,0,0,0,0,0,0,0,0,0,0,0,0,0,0,0,0,0,0,0,0,0,0,0,0,0,0,0,0,0,0,0,0,0,0,0,0,0,0,0,0,0,4.1882,4.1883,0,4.1898,4.1898,4.1898,4.1869,4.1869,4.1868,4.1867,4.188,4.1881,4.1882,0,0,0,0,0,0,0,0,0,0,0,0,0,4.1826,4.1827,4.1882,4.1883,4.1883,4.1898,4.1898,4.1898,4.187,4.1868,4.1867,4.1866,4.188,4.1881,4.1883,0,0,0,0,0,0,0,0,0,0,0,0,0,4.1847,4.1827,4.1882,4.187,4.1869,4.1898,4.1898,4.1898,4.187,4.1868,4.1867,4.1866,4.1879,4.1881,4.1883,4.1922,0,0,4.1888,4.1889,0,0,0,0,0,0,0,0,4.1845,4.1849,4.1872,4.1871,4.187,4.188,4.1883,4.1906,4.187,4.187,4.1867,4.1865,4.1881,4.1883,4.1889,4.1923,4.1924,4.1889,4.189,4.189,4.1891,0,0,0,0,0,0,0,4.1844,4.1848,4.1888,4.1872,4.1871,4.1863,4.1865,4.1887,4.1883,4.187,4.1868,4.187,4.188,4.1887,4.1889,4.1924,4.1888,4.189,4.1891,4.1892,4.199,4.1992,0,0,0,0,0,0,4.1844,4.1847,4.1888,4.1889,4.1854,4.1866,4.1867,4.1878,4.1883,4.1882,4.1871,4.1869,4.1884,4.1887,4.1889,4.1934,4.189,4.1892,4.1893,4.1989,4.199,4.1992,0,0,0,0,0,0,4.1843,4.1848,4.1887,4.1867,4.1872,4.1868,4.1881,4.188,4.1886,4.1884,4.1883,4.1879,4.1883,4.1886,4.1914,4.1934,4.1893,4.1895,4.1987,4.1989,4.1991,4.2026,0,0,0,0,0,0,4.1842,4.1848,4.1864,4.1868,4.1873,4.1913,4.1882,4.1881,4.189,4.1886,4.1891,4.189,4.1882,4.1912,4.1916,4.1936,4.1896,4.1985,4.1988,4.1991,4.2023,4.2029,4.2035,0,0,0,0,0,4.184,4.1873,4.1865,4.187,4.1892,4.1914,4.1917,4.1908,4.1891,4.1906,4.1905,4.189,4.1932,4.1915,4.1919,4.194,4.1984,4.1987,4.199,4.2021,4.2028,4.2034,0,0,0,0,0,0,4.187,4.1873,4.1864,4.19,4.1907,4.1909,4.1928,4.1917,4.1928,4.1925,4.1913,4.1914,4.1944,4.1945,4.1926,4.1978,4.1955,4.1959,4.1976,4.1983,4.1989,4.1987,4.1898,0,0,0,0,0,4.1881,4.19,4.1901,4.1932,4.1936,4.1932,4.1941,4.1934,4.194,4.1943,4.1944,4.195,4.1965,4.1974,4.1988,4.2024,4.2023,4.2041,4.2046,4.2051,4.2054,4.2072,4.2079,4.2003,4.2003,4.2003,0,0,4.1904,4.1908,4.192,4.1938,4.1943,4.1961,4.1934,4.1955,4.1968,4.1946,4.1972,4.1973,4.1979,4.2011,4.2025,4.2013,4.2076,4.2056,4.2059,4.206,4.2076,4.2084,4.209,4.2005,4.2005,4.2005,0,0,4.1953,4.1959,4.1985,4.199,4.1998,4.1995,4.2002,4.2006,4.2006,4.2032,4.2015,4.2031,4.2056,4.2061,4.2067,4.2119,4.2104,4.2124,4.2153,4.217,4.2176,4.2181,4.2198,4.2204,4.2127,4.2127,4.2127,0,4.198,4.2007,4.1999,4.2021,4.2028,4.2011,4.2036,4.2042,4.2053,4.2059,4.2046,4.2077,4.208,4.2112,4.2125,4.2131,4.2136,4.2122,4.2176,4.2181,4.2186,4.2201,4.2208,4.2129,4.2129,4.2129,4.2129,0,4.2038,4.2058,4.2077,4.209,4.21,4.2123,4.2118,4.2129,4.2121,4.2119,4.2146,4.2149,4.2162,4.217,4.2162,4.22,4.2192,4.2178,4.2154,4.2195,4.221,4.2216,4.2132,4.2132,4.2131,4.2131,0,0,4.2106,4.2114,4.2121,4.2126,4.2134,4.2148,4.217,4.2184,4.2193,4.2202,4.2219,4.2241,4.2228,4.2235,4.2228,4.2243,4.2282,4.2227,4.2227,4.2235,4.2322,4.2331,4.2339,4.2274,4.2275,4.2276,4.2321,0,4.2154,4.2192,4.2186,4.2223,4.224,4.2223,4.2243,4.2249,4.2248,4.2261,4.226,4.2275,4.2257,4.2261,4.2276,4.2274,4.2299,4.2271,4.2288,4.2288,4.2284,4.2347,4.2356,4.2399,4.2327,4.2328,4.2328,0,4.2214,4.2226,4.2265,4.2269,4.2276,4.2293,4.2304,4.2318,4.2325,4.2323,4.2331,4.2321,4.2341,4.2319,4.2346,4.2328,4.2334,4.2335,4.2336,4.2335,4.2309,4.2346,4.2412,4.2418,4.2338,4.2337,4.2336,0,4.2257,4.2282,4.2309,4.2314,4.232,4.2332,4.2335,4.2341,4.2349,4.2359,4.2364,4.2377,4.2383,4.2392,4.2385,4.237,4.2414,4.2391,4.2411,4.2411,4.2419,4.2419,4.2486,4.2428,4.2427,4.2427,4.2427,0,4.231,4.2333,4.2328,4.2343,4.2369,4.2362,4.2387,4.2389,4.2394,4.2408,4.2396,4.241,4.2401,4.2414,4.241,4.2432,4.2436,4.2434,4.2432,4.2434,4.2434,4.2436,4.2432,4.2429,4.2429,4.2428,4.2428,0,4.2361,4.2358,4.2385,4.2389,4.2391,4.241,4.2413,4.2427,4.2426,4.2445,4.2449,4.2446,4.2461,4.2456,4.2472,4.2468,4.2497,4.2492,4.2494,4.2492,4.2513,4.251,4.2582,4.2591,4.2529,4.2529,4.253,0,4.2393,4.2411,4.2418,4.2427,4.2431,4.2447,4.2455,4.2449,4.2458,4.2467,4.248,4.2494,4.2504,4.2529,4.2528,4.254,4.2534,4.2558,4.2535,4.2536,4.2531,4.253,4.2531,4.2562,4.2563,4.2563,4.2564,0,4.2451,4.2449,4.2462,4.2475,4.2486,4.2495,4.2504,4.2512,4.2506,4.2517,4.2532,4.2541,4.2557,4.2571,4.2582,4.2584,4.2572,4.2572,4.2577,4.2578,4.2577,4.2576,4.2505,4.2569,4.2569,4.2568,4.2568,4.2568,4.2492,4.2507,4.2513,4.2528,4.2534,4.2542,4.2556,4.2556,4.2569,4.2582,4.2578,4.2595,4.2601,4.2614,4.2618,4.2631,4.2621,4.2629,4.263,4.2632,4.2634,4.2578,4.2633,4.2633,4.2633,4.2633,4.2633,0,4.2547,4.255,4.2565,4.2577,4.2589,4.2579,4.2587,4.2597,4.2613,4.262,4.2631,4.2648,4.2661,4.2662,4.2674,4.2684,4.2679,4.2687,4.2685,4.2685,4.2643,4.2636,4.2691,4.2691,4.2691,4.269,4.269,4.269,4.2576,4.26,4.2599,4.2626,4.2629,4.2646,4.2652,4.2659,4.2664,4.2684,4.2696,4.2696,4.27,4.2712,4.2723,4.2723,4.2727,4.2737,4.2734,4.2694,4.2688,4.2683,4.2676,4.2738,4.2739,4.2776,4.2776,4.2776]}]]